NDF84 EDHE-EKVD

Flight info

Callsign NDF84
Flight time 0h 48m
Altitude 2800
Route DCT
Aircraft PA24/L-SDGRY/S

Departure

Time 2026-04-19 16:50
Airport Uetersen-Heist Airfield (EDHE)

Arrival

Time 2026-04-19 17:38
Airport Kolding Vamdrup Airfield (EKVD)
Time Latitude Longitude Altitude Speed Heading
2026-04-19 16:50 53.74240 9.61013 2799 ft 143 kts 335°
2026-04-19 16:50 53.75171 9.60415 2800 ft 143 kts 336°
2026-04-19 16:50 53.76106 9.59817 2799 ft 144 kts 336°
2026-04-19 16:50 53.77042 9.59223 2799 ft 144 kts 334°
2026-04-19 16:51 53.77980 9.58598 2804 ft 145 kts 336°
2026-04-19 16:51 53.78611 9.58188 2803 ft 148 kts 335°
2026-04-19 16:51 53.79518 9.57563 2799 ft 151 kts 333°
2026-04-19 16:51 53.80496 9.56901 2798 ft 151 kts 338°
2026-04-19 16:52 53.81529 9.56659 2797 ft 151 kts 354°
2026-04-19 16:52 53.82576 9.56571 2794 ft 150 kts 352°
2026-04-19 16:52 53.83278 9.56515 2793 ft 150 kts 353°
2026-04-19 16:52 53.84210 9.56447 2786 ft 149 kts 353°
2026-04-19 16:53 53.85245 9.56358 2795 ft 148 kts 352°
2026-04-19 16:53 53.86277 9.56245 2794 ft 149 kts 353°
2026-04-19 16:53 53.87314 9.56185 2792 ft 149 kts 354°
2026-04-19 16:53 53.87651 9.56165 2793 ft 149 kts 353°
2026-04-19 16:54 53.88444 9.56109 2776 ft 150 kts 353°
2026-04-19 16:54 53.89293 9.56049 2791 ft 148 kts 353°
2026-04-19 16:54 53.90306 9.55982 2795 ft 148 kts 352°
2026-04-19 16:54 53.91351 9.55917 2803 ft 152 kts 353°
2026-04-19 16:55 53.92066 9.55883 2798 ft 156 kts 352°
2026-04-19 16:55 53.94374 9.55746 2794 ft 153 kts 353°
2026-04-19 16:55 53.95441 9.55674 2795 ft 154 kts 353°
2026-04-19 16:56 53.96505 9.55622 2797 ft 155 kts 352°
2026-04-19 16:56 53.97576 9.55547 2795 ft 153 kts 353°
2026-04-19 16:56 53.98622 9.55480 2794 ft 151 kts 353°
2026-04-19 16:56 53.99669 9.55406 2798 ft 150 kts 353°
2026-04-19 16:57 54.00193 9.55374 2784 ft 150 kts 353°
2026-04-19 16:57 54.01234 9.55321 2792 ft 150 kts 353°
2026-04-19 16:57 54.02279 9.55257 2791 ft 150 kts 353°
2026-04-19 16:57 54.03318 9.55196 2796 ft 150 kts 353°
2026-04-19 16:58 54.04361 9.55123 2792 ft 149 kts 353°
2026-04-19 16:58 54.05399 9.55052 2793 ft 149 kts 353°
2026-04-19 16:58 54.05552 9.55041 2797 ft 149 kts 353°
2026-04-19 16:58 54.06307 9.54984 2787 ft 149 kts 352°
2026-04-19 16:59 54.07346 9.54922 2792 ft 150 kts 353°
2026-04-19 16:59 54.08374 9.54867 2792 ft 150 kts 353°
2026-04-19 16:59 54.09413 9.54805 2794 ft 149 kts 353°
2026-04-19 16:59 54.10113 9.54760 2793 ft 149 kts 353°
2026-04-19 17:00 54.10880 9.54713 2789 ft 150 kts 353°
2026-04-19 17:00 54.12228 9.54622 2787 ft 149 kts 352°
2026-04-19 17:00 54.13266 9.54522 2791 ft 150 kts 354°
2026-04-19 17:00 54.14309 9.54480 2792 ft 150 kts 353°
2026-04-19 17:01 54.15004 9.54449 2794 ft 151 kts 353°
2026-04-19 17:01 54.16049 9.54374 2799 ft 150 kts 353°
2026-04-19 17:01 54.16682 9.54327 2795 ft 150 kts 353°
2026-04-19 17:01 54.17722 9.54246 2793 ft 149 kts 353°
2026-04-19 17:02 54.18765 9.54174 2789 ft 150 kts 353°
2026-04-19 17:02 54.19810 9.54109 2799 ft 150 kts 353°
2026-04-19 17:02 54.20852 9.54044 2789 ft 150 kts 352°
2026-04-19 17:02 54.21894 9.53961 2789 ft 149 kts 352°
2026-04-19 17:03 54.22931 9.53994 2795 ft 149 kts 360°
2026-04-19 17:03 54.23280 9.54041 2794 ft 150 kts 360°
2026-04-19 17:03 54.23499 9.54069 2789 ft 150 kts 360°
2026-04-19 17:03 54.24543 9.54207 2795 ft 151 kts 360°
2026-04-19 17:04 54.25592 9.54338 2792 ft 151 kts
2026-04-19 17:04 54.26642 9.54483 2794 ft 151 kts 360°
2026-04-19 17:04 54.27671 9.54620 2796 ft 150 kts 360°
2026-04-19 17:04 54.28248 9.54696 2793 ft 149 kts 360°
2026-04-19 17:05 54.29288 9.54838 2791 ft 150 kts
2026-04-19 17:05 54.30332 9.54976 2792 ft 150 kts 360°
2026-04-19 17:05 54.31370 9.55108 2794 ft 151 kts
2026-04-19 17:05 54.32416 9.55246 2794 ft 151 kts
2026-04-19 17:06 54.33465 9.55380 2798 ft 151 kts 360°
2026-04-19 17:06 54.34508 9.55510 2799 ft 151 kts 360°
2026-04-19 17:06 54.35554 9.55643 2800 ft 151 kts 360°
2026-04-19 17:06 54.35764 9.55668 2792 ft 151 kts 360°
2026-04-19 17:07 54.36813 9.55793 2797 ft 150 kts 360°
2026-04-19 17:07 54.37862 9.55911 2797 ft 151 kts 360°
2026-04-19 17:07 54.38910 9.56039 2798 ft 151 kts
2026-04-19 17:07 54.39958 9.56174 2802 ft 151 kts
2026-04-19 17:08 54.41008 9.56318 2794 ft 151 kts 360°
2026-04-19 17:08 54.42064 9.56457 2793 ft 150 kts 360°
2026-04-19 17:08 54.43106 9.56590 2794 ft 150 kts 360°
2026-04-19 17:08 54.43456 9.56632 2792 ft 150 kts 360°
2026-04-19 17:09 54.43729 9.56667 2793 ft 149 kts
2026-04-19 17:09 54.44418 9.56762 2796 ft 149 kts
2026-04-19 17:09 54.45316 9.56873 2792 ft 149 kts
2026-04-19 17:10 54.46346 9.57000 2799 ft 149 kts 360°
2026-04-19 17:10 54.47386 9.57122 2797 ft 150 kts 360°
2026-04-19 17:10 54.48424 9.57254 2790 ft 149 kts 360°
2026-04-19 17:10 54.49452 9.57378 2796 ft 149 kts 360°
2026-04-19 17:11 54.50484 9.57495 2794 ft 148 kts
2026-04-19 17:11 54.51515 9.57617 2795 ft 148 kts 360°
2026-04-19 17:11 54.52553 9.57737 2797 ft 149 kts 360°
2026-04-19 17:11 54.53572 9.57852 2799 ft 148 kts 359°
2026-04-19 17:12 54.54266 9.57940 2797 ft 148 kts
2026-04-19 17:12 54.55074 9.58045 2796 ft 148 kts 360°
2026-04-19 17:12 54.56107 9.58170 2791 ft 149 kts 360°
2026-04-19 17:12 54.57137 9.58295 2793 ft 148 kts
2026-04-19 17:13 54.58169 9.58397 2793 ft 149 kts 359°
2026-04-19 17:13 54.58312 9.58411 2794 ft 149 kts 359°
2026-04-19 17:13 54.59110 9.58503 2788 ft 149 kts
2026-04-19 17:13 54.60143 9.58624 2803 ft 149 kts 357°
2026-04-19 17:14 54.60823 9.58568 2795 ft 149 kts 352°
2026-04-19 17:14 54.61311 9.58500 2790 ft 149 kts 352°
2026-04-19 17:14 54.62317 9.58391 2799 ft 148 kts 353°
2026-04-19 17:14 54.63345 9.58279 2793 ft 148 kts 353°
2026-04-19 17:15 54.64371 9.58166 2789 ft 148 kts 353°
2026-04-19 17:15 54.65399 9.58051 2795 ft 147 kts 353°
2026-04-19 17:15 54.66409 9.57938 2796 ft 148 kts 353°
2026-04-19 17:15 54.67433 9.57823 2789 ft 146 kts 353°
2026-04-19 17:16 54.68450 9.57719 2793 ft 147 kts 353°
2026-04-19 17:16 54.69469 9.57614 2797 ft 147 kts 353°
2026-04-19 17:16 54.70489 9.57501 2788 ft 147 kts 353°
2026-04-19 17:16 54.71315 9.57392 2785 ft 148 kts 353°
2026-04-19 17:17 54.72341 9.57287 2789 ft 148 kts 353°
2026-04-19 17:17 54.73369 9.57178 2792 ft 148 kts 353°
2026-04-19 17:17 54.74392 9.57072 2789 ft 147 kts 353°
2026-04-19 17:17 54.75414 9.56954 2794 ft 147 kts 354°
2026-04-19 17:18 54.76073 9.56884 2780 ft 148 kts 353°
2026-04-19 17:18 54.76838 9.56804 2787 ft 148 kts 353°
2026-04-19 17:18 54.77862 9.56670 2792 ft 147 kts 352°
2026-04-19 17:18 54.78878 9.56547 2788 ft 147 kts 353°
2026-04-19 17:19 54.79772 9.56462 2787 ft 147 kts 354°
2026-04-19 17:19 54.80789 9.56328 2793 ft 146 kts 353°
2026-04-19 17:19 54.81804 9.56191 2792 ft 147 kts 353°
2026-04-19 17:19 54.82827 9.56077 2790 ft 147 kts 354°
2026-04-19 17:20 54.83847 9.55946 2793 ft 147 kts 353°
2026-04-19 17:20 54.84870 9.55820 2790 ft 147 kts 354°
2026-04-19 17:20 54.85889 9.55702 2789 ft 147 kts 352°
2026-04-19 17:20 54.86909 9.55565 2797 ft 146 kts 352°
2026-04-19 17:21 54.87788 9.55426 2791 ft 145 kts 353°
2026-04-19 17:21 54.88782 9.55289 2790 ft 145 kts 353°
2026-04-19 17:21 54.89788 9.55147 2792 ft 145 kts 353°
2026-04-19 17:21 54.90796 9.55024 2790 ft 146 kts 353°
2026-04-19 17:22 54.91818 9.54897 2789 ft 145 kts 353°
2026-04-19 17:22 54.92813 9.54755 2801 ft 145 kts 349°
2026-04-19 17:22 54.93441 9.54571 2788 ft 145 kts 347°
2026-04-19 17:22 54.93845 9.54454 2785 ft 145 kts 348°
2026-04-19 17:23 54.94844 9.54177 2790 ft 145 kts 348°
2026-04-19 17:23 54.95835 9.53871 2795 ft 145 kts 348°
2026-04-19 17:23 54.96827 9.53579 2794 ft 145 kts 347°
2026-04-19 17:23 54.97827 9.53277 2792 ft 145 kts 348°
2026-04-19 17:24 54.98485 9.53075 2791 ft 144 kts 348°
2026-04-19 17:24 54.99550 9.52758 2792 ft 145 kts 347°
2026-04-19 17:24 55.00541 9.52458 2794 ft 144 kts 348°
2026-04-19 17:24 55.01524 9.52160 2794 ft 145 kts 348°
2026-04-19 17:25 55.02397 9.51898 2792 ft 145 kts 348°
2026-04-19 17:25 55.03388 9.51599 2793 ft 144 kts 348°
2026-04-19 17:25 55.04377 9.51312 2794 ft 145 kts 348°
2026-04-19 17:25 55.05370 9.50999 2791 ft 145 kts 347°
2026-04-19 17:26 55.06359 9.50725 2795 ft 144 kts 349°
2026-04-19 17:26 55.07347 9.50439 2797 ft 144 kts 348°
2026-04-19 17:26 55.08332 9.50143 2796 ft 144 kts 347°
2026-04-19 17:26 55.09312 9.49767 2797 ft 144 kts 345°
2026-04-19 17:27 55.10285 9.49383 2799 ft 144 kts 346°
2026-04-19 17:27 55.10930 9.49129 2795 ft 144 kts 344°
2026-04-19 17:27 55.11259 9.48982 2782 ft 144 kts 345°
2026-04-19 17:27 55.12233 9.48600 2795 ft 143 kts 345°
2026-04-19 17:28 55.13198 9.48185 2799 ft 143 kts 345°
2026-04-19 17:28 55.14165 9.47751 2795 ft 144 kts 345°
2026-04-19 17:28 55.15130 9.47369 2795 ft 143 kts 345°
2026-04-19 17:28 55.16064 9.46801 2779 ft 142 kts 324°
2026-04-19 17:29 55.16901 9.46397 2788 ft 142 kts 354°
2026-04-19 17:29 55.17868 9.46112 2797 ft 143 kts 346°
2026-04-19 17:29 55.18840 9.45778 2795 ft 142 kts 348°
2026-04-19 17:29 55.19815 9.45410 2795 ft 143 kts 346°
2026-04-19 17:30 55.20551 9.45123 2790 ft 144 kts 343°
2026-04-19 17:30 55.21521 9.44663 2794 ft 144 kts 345°
2026-04-19 17:30 55.22496 9.44248 2792 ft 143 kts 347°
2026-04-19 17:30 55.23463 9.43822 2792 ft 143 kts 342°
2026-04-19 17:31 55.24419 9.43370 2793 ft 142 kts 343°
2026-04-19 17:31 55.25387 9.42956 2792 ft 143 kts 347°
2026-04-19 17:31 55.26356 9.42540 2791 ft 143 kts 343°
2026-04-19 17:31 55.27318 9.42149 2790 ft 142 kts 347°
2026-04-19 17:32 55.28283 9.41765 2792 ft 142 kts 343°
2026-04-19 17:32 55.28599 9.41622 2789 ft 142 kts 342°
2026-04-19 17:32 55.29310 9.41328 2789 ft 141 kts 346°
2026-04-19 17:32 55.30272 9.40918 2793 ft 139 kts 346°
2026-04-19 17:33 55.31216 9.40522 2792 ft 140 kts 346°
2026-04-19 17:33 55.32021 9.40184 2788 ft 140 kts 344°
2026-04-19 17:33 55.32929 9.39747 2705 ft 135 kts 333°
2026-04-19 17:33 55.33595 9.38488 2308 ft 150 kts 297°
2026-04-19 17:34 55.34058 9.36981 2397 ft 129 kts 298°
2026-04-19 17:34 55.34328 9.36062 2240 ft 135 kts 300°
2026-04-19 17:34 55.34769 9.34507 1902 ft 144 kts 296°
2026-04-19 17:34 55.35182 9.32981 1897 ft 133 kts 298°
2026-04-19 17:35 55.35607 9.31516 1675 ft 139 kts 299°
2026-04-19 17:35 55.36032 9.29981 1526 ft 137 kts 298°
2026-04-19 17:35 55.36316 9.29006 1472 ft 134 kts 300°
2026-04-19 17:35 55.36911 9.27753 1167 ft 142 kts 327°
2026-04-19 17:36 55.37881 9.27454 881 ft 146 kts
2026-04-19 17:36 55.38775 9.28025 843 ft 136 kts 41°
2026-04-19 17:36 55.39213 9.29373 961 ft 112 kts 59°
2026-04-19 17:36 55.39509 9.30489 941 ft 90 kts 54°
2026-04-19 17:37 55.39965 9.31081 886 ft 84 kts
2026-04-19 17:37 55.40343 9.31261 793 ft 84 kts
2026-04-19 17:37 55.40907 9.31572 648 ft 84 kts 13°
2026-04-19 17:37 55.41450 9.31891 568 ft 82 kts 10°
2026-04-19 17:38 55.42006 9.32179 453 ft 85 kts
2026-04-19 17:38 55.42513 9.32453 300 ft 69 kts 10°
2026-04-19 17:38 55.42951 9.32712 196 ft 65 kts 10°
2026-04-19 17:38 55.43309 9.32896 139 ft 39 kts 20°
2026-04-19 17:39 55.43501 9.33008 142 ft 20 kts 17°
2026-04-19 17:39 55.43591 9.33060 140 ft 7 kts 16°
2026-04-19 17:39 55.43608 9.33070 140 ft 0 kts 15°
2026-04-19 17:40 55.43645 9.33092 139 ft 15 kts 24°
2026-04-19 17:40 55.43690 9.33075 141 ft 9 kts 255°
2026-04-19 17:40 55.43696 9.32986 142 ft 9 kts 352°
2026-04-19 17:40 55.43705 9.33012 142 ft 0 kts 78°